Lancaster, CA

11:34 PM PDT on August 21, 2017 (GMT -0700)
Gen Fox

Weather History for KWJF - February, 2012

Change the Weather History Date:

Sunday, February 12, 2012

  Actual Average Record
Temperature  
Mean Temperature 50 °F 48 °F  
Max Temperature 58 °F 61 °F 82 °F (2014)
Min Temperature 41 °F 34 °F 14 °F (1965)
Degree Days  
Heating Degree Days 15    
Month to date heating degree days 215  
Since 1 July heating degree days 2157  
Cooling Degree Days 0    
Month to date cooling degree days 0  
Year to date cooling degree days 0  
Moisture  
Dew Point 34 °F    
Average Humidity 58    
Maximum Humidity 76    
Minimum Humidity 39    
Precipitation  
Precipitation 0.00 in 0.06 in 2.67 in (2003)
Month to date precipitation 0.02 0.74  
Year to date precipitation 0.12 2.24  
Since 1 July precipitation 1.47  
Snow  
Snow 0.00 in - 0.00 in ()
Month to date snowfall 0.0  
Since 1 July snowfall 0.0  
Snow Depth 0.00 in    
Sea Level Pressure  
Sea Level Pressure 29.96 in    
Wind  
Wind Speed 19 mph (West)    
Max Wind Speed 33 mph    
Max Gust Speed 39 mph    
Visibility 10 miles    
Events      
T = Trace of Precipitation, MM = Missing Value Source: NWS Daily Summary

Daily Weather History Graph

Daily Weather History Graph

Search for Another Location

Airport or City:

Trip Planner

Search our weather history database for the weather conditions in past years. The results will help you decide how hot, cold, wet, or windy it might be!

Date:

Astronomy

Feb. 12, 2012 Rise Set
Actual Time 6:41 AM PST 5:32 PM PST
Civil Twilight 6:16 AM PST 5:58 PM PST
Nautical Twilight 5:46 AM PST 6:28 PM PST
Astronomical Twilight 5:16 AM PST 6:57 PM PST
Moon 11:17 PM PST (2/12) 9:20 AM PST (2/12)
Length of Visible Light 11h 42m
Length of Day
10h 50m
Waning Gibbous, 71% of the Moon is Illuminated
Feb 12
Waning Gibbous
Feb 14
Last Quarter
Feb 21
New
Feb 29
First Quarter
Mar 8
Full

Hourly Weather History & Observations

Time (PST) Temp. Windchill Dew Point Humidity Pressure Visibility Wind Dir Wind Speed Gust Speed Precip Events Conditions
12:56 AM 45.0 °F 39.7 °F 35.1 °F 68% 29.94 in 10.0 mi West 10.4 mph - N/A   Clear
1:56 AM 46.0 °F 38.3 °F 34.0 °F 63% 29.94 in 10.0 mi WNW 20.7 mph 25.3 mph N/A   Clear
2:56 AM 46.0 °F 38.0 °F 36.0 °F 68% 29.92 in 10.0 mi West 21.9 mph - N/A   Clear
3:56 AM 45.0 °F 37.1 °F 35.1 °F 68% 29.92 in 10.0 mi West 19.6 mph - N/A   Clear
4:56 AM 45.0 °F 38.2 °F 35.1 °F 68% 29.93 in 10.0 mi West 15.0 mph - N/A   Clear
5:56 AM 43.0 °F 36.0 °F 35.1 °F 74% 29.97 in 10.0 mi West 13.8 mph - N/A   Clear
6:56 AM 43.0 °F 39.5 °F 34.0 °F 71% 29.97 in 10.0 mi West 5.8 mph - N/A   Clear
7:56 AM 46.9 °F - 35.1 °F 63% 29.99 in 10.0 mi West 9.2 mph - N/A   Clear
8:56 AM 51.1 °F - 33.1 °F 50% 29.98 in 10.0 mi West 20.7 mph - N/A   Clear
9:56 AM 54.0 °F - 34.0 °F 47% 29.99 in 10.0 mi West 23.0 mph - N/A   Clear
10:56 AM 55.9 °F - 36.0 °F 47% 30.01 in 10.0 mi West 20.7 mph 27.6 mph N/A   Clear
11:56 AM 57.0 °F - 36.0 °F 45% 29.99 in 10.0 mi West 26.5 mph - N/A   Clear
12:56 PM 57.9 °F - 34.0 °F 41% 29.96 in 10.0 mi West 25.3 mph - N/A   Clear
1:56 PM 57.0 °F - 34.0 °F 42% 29.95 in 10.0 mi West 26.5 mph 33.4 mph N/A   Clear
2:56 PM 55.9 °F - 35.1 °F 45% 29.95 in 10.0 mi West 24.2 mph 29.9 mph N/A   Clear
3:56 PM 54.0 °F - 35.1 °F 49% 29.95 in 10.0 mi West 26.5 mph - N/A   Clear
4:56 PM 52.0 °F - 35.1 °F 53% 29.96 in 10.0 mi West 17.3 mph 26.5 mph N/A   Clear
5:56 PM 50.0 °F - 35.1 °F 57% 29.98 in 10.0 mi West 20.7 mph 31.1 mph N/A   Clear
6:56 PM 48.9 °F - 34.0 °F 56% 29.98 in 10.0 mi WSW 16.1 mph 25.3 mph N/A   Clear
7:56 PM 48.0 °F - 35.1 °F 61% 29.98 in 10.0 mi West 19.6 mph - N/A   Clear
8:56 PM 48.9 °F - 34.0 °F 56% 29.97 in 10.0 mi WSW 20.7 mph 27.6 mph N/A   Clear
9:56 PM 48.9 °F - 34.0 °F 56% 29.97 in 10.0 mi SSW 13.8 mph - N/A   Clear
10:56 PM 50.0 °F - 27.0 °F 41% 29.96 in 10.0 mi West 20.7 mph 26.5 mph N/A   Clear
11:56 PM 48.0 °F - 35.1 °F 61% 29.96 in 10.0 mi WSW 16.1 mph - N/A   Clear